Location: Seattle
(47.6064°N, 122.3308°W)
Time: 04:17:01
(UTC-08:00)

S-56A Canister/Altair - Pass Details

Date: 04 December 2020
Orbit: 633 x 2499 km, 38.9° (Epoch: 23 January)

Event Time Altitude Azimuth Distance (km) Brightness Sun altitude
Rises 20:25:22 0° 262° (W) 5,731 12.8 -40.6°
Reaches altitude 10° 20:29:37 10° 258° (WSW) 4,488 12.0 -41.3°
Enters shadow 20:38:33 44° 221° (SW) 2,124 9.7 -42.8°
Maximum altitude 20:40:38 50° 189° (S) 1,871 - -43.1°
Drops below altitude 10° 20:48:01 10° 116° (ESE) 3,052 - -44.3°
Sets 20:50:23 0° 111° (ESE) 3,805 - -44.7°
